Time,TemperatureF,DewpointF,PressureIn,WindDirection,WindDirectionDegrees,WindSpeedMPH,WindSpeedGustMPH,Humidity,HourlyPrecipIn,Conditions,Clouds,dailyrainin,SoftwareType,DateUTC
2013-05-29 00:02:00,70.0,66.0,-100.00,South,175,6.0,-999.0,86,-99.99,,,-99.99,,2013-05-29 04:02:00,
2013-05-29 00:13:00,70.0,66.0,-100.00,South,175,6.0,-999.0,86,-99.99,,,-99.99,,2013-05-29 04:13:00,
2013-05-29 00:23:00,71.0,66.0,-100.00,South,176,5.0,-999.0,86,-99.99,,,-99.99,,2013-05-29 04:23:00,
2013-05-29 00:33:00,70.0,67.0,-100.00,South,176,4.0,-999.0,87,-99.99,,,-99.99,,2013-05-29 04:33:00,
2013-05-29 00:42:00,70.0,67.0,-100.00,South,176,4.0,-999.0,87,-99.99,,,-99.99,,2013-05-29 04:42:00,
2013-05-29 00:53:00,70.0,67.0,-100.00,South,182,5.0,-999.0,88,-99.99,,,-99.99,,2013-05-29 04:53:00,
2013-05-29 01:03:00,70.0,67.0,-100.00,South,185,6.0,-999.0,89,-99.99,,,-99.99,,2013-05-29 05:03:00,
2013-05-29 01:12:00,70.0,67.0,-100.00,South,185,6.0,-999.0,89,-99.99,,,-99.99,,2013-05-29 05:12:00,
2013-05-29 01:22:00,70.0,67.0,-100.00,South,184,6.0,-999.0,89,-99.99,,,-99.99,,2013-05-29 05:22:00,
2013-05-29 01:32:00,70.0,67.0,-100.00,South,184,6.0,-999.0,89,-99.99,,,-99.99,,2013-05-29 05:32:00,
2013-05-29 01:42:00,70.0,67.0,-100.00,South,184,6.0,-999.0,89,-99.99,,,-99.99,,2013-05-29 05:42:00,
2013-05-29 01:52:00,70.0,67.0,-100.00,SSW,198,5.0,-999.0,88,-99.99,,,-99.99,,2013-05-29 05:52:00,
2013-05-29 02:02:00,70.0,67.0,-100.00,SSW,198,5.0,-999.0,88,-99.99,,,-99.99,,2013-05-29 06:02:00,
2013-05-29 02:12:00,70.0,67.0,-100.00,SSW,198,5.0,-999.0,88,-99.99,,,-99.99,,2013-05-29 06:12:00,
2013-05-29 02:21:00,70.0,66.0,-100.00,SSW,203,5.0,-999.0,87,-99.99,,,-99.99,,2013-05-29 06:21:00,
2013-05-29 02:32:00,70.0,66.0,-100.00,SSW,203,5.0,-999.0,87,-99.99,,,-99.99,,2013-05-29 06:32:00,
2013-05-29 02:42:00,70.0,66.0,-100.00,SSW,203,5.0,-999.0,87,-99.99,,,-99.99,,2013-05-29 06:42:00,
2013-05-29 02:52:00,70.0,66.0,-100.00,South,190,3.0,-999.0,87,-99.99,,,-99.99,,2013-05-29 06:52:00,
2013-05-29 03:01:00,70.0,66.0,-100.00,South,190,3.0,-999.0,87,-99.99,,,-99.99,,2013-05-29 07:01:00,
2013-05-29 03:12:00,70.0,66.0,-100.00,South,190,3.0,-999.0,87,-99.99,,,-99.99,,2013-05-29 07:12:00,
2013-05-29 03:22:00,70.0,66.0,-100.00,South,189,4.0,-999.0,87,-99.99,,,-99.99,,2013-05-29 07:22:00,
2013-05-29 03:34:00,70.0,66.0,-100.00,South,189,4.0,-999.0,87,-99.99,,,-99.99,,2013-05-29 07:34:00,
2013-05-29 03:42:00,70.0,66.0,-100.00,South,189,4.0,-999.0,87,-99.99,,,-99.99,,2013-05-29 07:42:00,
2013-05-29 03:53:00,69.0,66.0,-100.00,SSW,203,7.0,-999.0,88,-99.99,,,-99.99,,2013-05-29 07:53:00,
2013-05-29 04:02:00,69.0,66.0,-100.00,SSW,203,7.0,-999.0,88,-99.99,,,-99.99,,2013-05-29 08:02:00,
2013-05-29 04:11:00,69.0,66.0,-100.00,SSW,203,7.0,-999.0,88,-99.99,,,-99.99,,2013-05-29 08:11:00,
2013-05-29 04:22:00,69.0,65.0,-100.00,SSW,204,7.0,-999.0,88,-99.99,,,-99.99,,2013-05-29 08:22:00,
2013-05-29 04:32:00,69.0,65.0,-100.00,SSW,204,7.0,-999.0,88,-99.99,,,-99.99,,2013-05-29 08:32:00,
2013-05-29 04:42:00,69.0,65.0,-100.00,SSW,204,7.0,-999.0,88,-99.99,,,-99.99,,2013-05-29 08:42:00,
2013-05-29 04:52:00,69.0,65.0,-100.00,SSW,203,8.0,-999.0,87,-99.99,,,-99.99,,2013-05-29 08:52:00,
2013-05-29 05:01:00,69.0,65.0,-100.00,SSW,203,8.0,-999.0,87,-99.99,,,-99.99,,2013-05-29 09:01:00,
2013-05-29 05:11:00,69.0,65.0,-100.00,SSW,203,8.0,-999.0,87,-99.99,,,-99.99,,2013-05-29 09:11:00,
2013-05-29 05:21:00,68.0,65.0,-100.00,SSW,203,8.0,-999.0,88,-99.99,,,-99.99,,2013-05-29 09:21:00,
2013-05-29 05:33:00,68.0,65.0,-100.00,SSW,203,8.0,-999.0,88,-99.99,,,-99.99,,2013-05-29 09:33:00,
2013-05-29 05:42:00,68.0,65.0,-100.00,SSW,203,8.0,-999.0,88,-99.99,,,-99.99,,2013-05-29 09:42:00,
2013-05-29 05:53:00,68.0,65.0,-100.00,SSW,203,8.0,-999.0,89,-99.99,,,-99.99,,2013-05-29 09:53:00,
2013-05-29 06:03:00,68.0,65.0,-100.00,SSW,203,8.0,-999.0,89,-99.99,,,-99.99,,2013-05-29 10:03:00,
2013-05-29 06:12:00,68.0,65.0,-100.00,SSW,203,8.0,-999.0,89,-99.99,,,-99.99,,2013-05-29 10:12:00,
2013-05-29 06:22:00,68.0,65.0,-100.00,SSW,205,7.0,-999.0,88,-99.99,,,-99.99,,2013-05-29 10:22:00,
2013-05-29 06:33:00,68.0,65.0,-100.00,SSW,205,7.0,-999.0,88,-99.99,,,-99.99,,2013-05-29 10:33:00,
2013-05-29 06:42:00,68.0,65.0,-100.00,SSW,205,7.0,-999.0,88,-99.99,,,-99.99,,2013-05-29 10:42:00,
2013-05-29 06:53:00,68.0,65.0,-100.00,SSW,198,7.0,-999.0,88,-99.99,,,-99.99,,2013-05-29 10:53:00,
2013-05-29 07:02:00,68.0,65.0,-100.00,SSW,198,7.0,-999.0,88,-99.99,,,-99.99,,2013-05-29 11:02:00,
2013-05-29 07:12:00,68.0,65.0,-100.00,SSW,198,7.0,-999.0,88,-99.99,,,-99.99,,2013-05-29 11:12:00,
2013-05-29 07:22:00,68.0,65.0,-100.00,SSW,194,8.0,-999.0,87,-99.99,,,-99.99,,2013-05-29 11:22:00,
2013-05-29 07:32:00,69.0,65.0,-100.00,SSW,203,7.0,-999.0,86,-99.99,,,-99.99,,2013-05-29 11:32:00,
2013-05-29 07:42:00,69.0,65.0,-100.00,SSW,203,7.0,-999.0,86,-99.99,,,-99.99,,2013-05-29 11:42:00,
2013-05-29 07:52:00,69.0,65.0,-100.00,SSW,207,6.0,-999.0,85,-99.99,,,-99.99,,2013-05-29 11:52:00,
2013-05-29 08:01:00,70.0,65.0,-100.00,SSW,204,7.0,-999.0,83,-99.99,,,-99.99,,2013-05-29 12:01:00,
2013-05-29 08:11:00,70.0,65.0,-100.00,SSW,204,7.0,-999.0,83,-99.99,,,-99.99,,2013-05-29 12:11:00,
2013-05-29 08:22:00,70.0,65.0,-100.00,SW,215,7.0,-999.0,82,-99.99,,,-99.99,,2013-05-29 12:22:00,
2013-05-29 08:32:00,71.0,65.0,-100.00,SW,218,7.0,-999.0,79,-99.99,,,-99.99,,2013-05-29 12:32:00,
2013-05-29 08:42:00,71.0,65.0,-100.00,SW,218,7.0,-999.0,79,-99.99,,,-99.99,,2013-05-29 12:42:00,
2013-05-29 08:52:00,72.0,65.0,-100.00,SW,215,7.0,-999.0,77,-99.99,,,-99.99,,2013-05-29 12:52:00,
2013-05-29 09:02:00,73.0,65.0,-100.00,SW,228,7.0,-999.0,75,-99.99,,,-99.99,,2013-05-29 13:02:00,
2013-05-29 09:11:00,73.0,65.0,-100.00,SW,228,7.0,-999.0,75,-99.99,,,-99.99,,2013-05-29 13:11:00,
2013-05-29 09:22:00,73.0,64.0,-100.00,SW,231,8.0,-999.0,73,-99.99,,,-99.99,,2013-05-29 13:22:00,
2013-05-29 09:32:00,74.0,64.0,-100.00,SW,234,9.0,-999.0,71,-99.99,,,-99.99,,2013-05-29 13:32:00,
2013-05-29 09:42:00,74.0,64.0,-100.00,SW,234,9.0,-999.0,71,-99.99,,,-99.99,,2013-05-29 13:42:00,
2013-05-29 09:53:00,75.0,64.0,-100.00,SW,218,9.0,-999.0,69,-99.99,,,-99.99,,2013-05-29 13:53:00,
2013-05-29 10:02:00,76.0,65.0,-100.00,SW,233,8.0,-999.0,67,-99.99,,,-99.99,,2013-05-29 14:02:00,
2013-05-29 10:11:00,76.0,65.0,-100.00,SW,233,8.0,-999.0,67,-99.99,,,-99.99,,2013-05-29 14:11:00,
2013-05-29 10:22:00,76.0,65.0,-100.00,SSW,202,6.0,-999.0,67,-99.99,,,-99.99,,2013-05-29 14:22:00,
2013-05-29 10:32:00,77.0,65.0,-100.00,South,189,8.0,-999.0,67,-99.99,,,-99.99,,2013-05-29 14:32:00,
2013-05-29 10:42:00,77.0,65.0,-100.00,South,189,8.0,-999.0,67,-99.99,,,-99.99,,2013-05-29 14:42:00,
2013-05-29 10:52:00,77.0,65.0,-100.00,South,186,7.0,-999.0,67,-99.99,,,-99.99,,2013-05-29 14:52:00,
2013-05-29 11:01:00,77.0,65.0,-100.00,South,190,7.0,-999.0,66,-99.99,,,-99.99,,2013-05-29 15:01:00,
2013-05-29 11:11:00,77.0,65.0,-100.00,South,190,7.0,-999.0,66,-99.99,,,-99.99,,2013-05-29 15:11:00,
2013-05-29 11:21:00,78.0,65.0,-100.00,South,188,6.0,-999.0,65,-99.99,,,-99.99,,2013-05-29 15:21:00,
2013-05-29 11:33:00,78.0,66.0,-100.00,SSW,192,8.0,-999.0,65,-99.99,,,-99.99,,2013-05-29 15:33:00,
2013-05-29 11:42:00,78.0,66.0,-100.00,SSW,192,8.0,-999.0,65,-99.99,,,-99.99,,2013-05-29 15:42:00,
2013-05-29 11:53:00,78.0,66.0,-100.00,South,191,7.0,-999.0,66,-99.99,,,-99.99,,2013-05-29 15:53:00,
2013-05-29 12:03:00,78.0,66.0,-100.00,South,190,7.0,-999.0,65,-99.99,,,-99.99,,2013-05-29 16:03:00,
2013-05-29 12:12:00,78.0,66.0,-100.00,South,190,7.0,-999.0,65,-99.99,,,-99.99,,2013-05-29 16:12:00,
2013-05-29 12:22:00,79.0,66.0,-100.00,SSW,195,7.0,-999.0,63,-99.99,,,-99.99,,2013-05-29 16:22:00,
2013-05-29 12:32:00,80.0,66.0,-100.00,SSW,194,7.0,-999.0,60,-99.99,,,-99.99,,2013-05-29 16:32:00,
2013-05-29 12:42:00,80.0,66.0,-100.00,SSW,194,7.0,-999.0,60,-99.99,,,-99.99,,2013-05-29 16:42:00,
2013-05-29 12:52:00,81.0,66.0,-100.00,South,175,7.0,-999.0,60,-99.99,,,-99.99,,2013-05-29 16:52:00,
2013-05-29 13:02:00,82.0,65.0,-100.00,South,188,7.0,-999.0,57,-99.99,,,-99.99,,2013-05-29 17:02:00,
2013-05-29 13:12:00,82.0,65.0,-100.00,South,188,7.0,-999.0,57,-99.99,,,-99.99,,2013-05-29 17:12:00,
2013-05-29 13:22:00,83.0,64.0,-100.00,South,182,6.0,-999.0,52,-99.99,,,-99.99,,2013-05-29 17:22:00,
2013-05-29 13:32:00,84.0,63.0,-100.00,South,178,6.0,-999.0,49,-99.99,,,-99.99,,2013-05-29 17:32:00,
2013-05-29 13:42:00,84.0,63.0,-100.00,South,178,6.0,-999.0,49,-99.99,,,-99.99,,2013-05-29 17:42:00,
2013-05-29 13:52:00,85.0,58.0,-100.00,West,279,7.0,-999.0,40,-99.99,,,-99.99,,2013-05-29 17:52:00,
2013-05-29 14:01:00,85.0,58.0,-100.00,WNW,283,6.0,-999.0,40,-99.99,,,-99.99,,2013-05-29 18:01:00,
2013-05-29 14:13:00,85.0,58.0,-100.00,WNW,283,6.0,-999.0,40,-99.99,,,-99.99,,2013-05-29 18:13:00,
2013-05-29 14:22:00,85.0,58.0,-100.00,West,273,8.0,-999.0,40,-99.99,,,-99.99,,2013-05-29 18:22:00,
2013-05-29 14:32:00,85.0,58.0,-100.00,WSW,249,9.0,-999.0,40,-99.99,,,-99.99,,2013-05-29 18:32:00,
2013-05-29 14:42:00,85.0,58.0,-100.00,WSW,249,9.0,-999.0,40,-99.99,,,-99.99,,2013-05-29 18:42:00,
2013-05-29 14:52:00,85.0,59.0,-100.00,WSW,258,7.0,-999.0,40,-99.99,,,-99.99,,2013-05-29 18:52:00,
2013-05-29 15:02:00,86.0,59.0,-100.00,SW,219,10.0,-999.0,40,-99.99,,,-99.99,,2013-05-29 19:02:00,
2013-05-29 15:11:00,86.0,59.0,-100.00,SW,219,10.0,-999.0,40,-99.99,,,-99.99,,2013-05-29 19:11:00,
2013-05-29 15:21:00,86.0,58.0,-100.00,SW,232,9.0,-999.0,38,-99.99,,,-99.99,,2013-05-29 19:21:00,
2013-05-29 15:32:00,86.0,60.0,-100.00,SSW,194,8.0,-999.0,41,-99.99,,,-99.99,,2013-05-29 19:32:00,
2013-05-29 15:44:00,86.0,60.0,-100.00,SSW,194,8.0,-999.0,41,-99.99,,,-99.99,,2013-05-29 19:44:00,
2013-05-29 15:53:00,86.0,61.0,-100.00,South,189,8.0,-999.0,42,-99.99,,,-99.99,,2013-05-29 19:53:00,
2013-05-29 16:03:00,86.0,61.0,-100.00,SSE,165,9.0,-999.0,42,-99.99,,,-99.99,,2013-05-29 20:03:00,
2013-05-29 16:11:00,86.0,61.0,-100.00,SSE,165,9.0,-999.0,42,-99.99,,,-99.99,,2013-05-29 20:11:00,
2013-05-29 16:23:00,86.0,61.0,-100.00,South,187,11.0,-999.0,42,-99.99,,,-99.99,,2013-05-29 20:23:00,
2013-05-29 16:33:00,86.0,62.0,-100.00,SSW,194,12.0,-999.0,44,-99.99,,,-99.99,,2013-05-29 20:33:00,
2013-05-29 16:42:00,86.0,62.0,-100.00,SSW,194,12.0,-999.0,44,-99.99,,,-99.99,,2013-05-29 20:42:00,
2013-05-29 16:53:00,86.0,62.0,-100.00,SSW,200,10.0,-999.0,44,-99.99,,,-99.99,,2013-05-29 20:53:00,
2013-05-29 17:02:00,86.0,59.0,-100.00,South,184,8.0,-999.0,40,-99.99,,,-99.99,,2013-05-29 21:02:00,
2013-05-29 17:12:00,86.0,59.0,-100.00,South,184,8.0,-999.0,40,-99.99,,,-99.99,,2013-05-29 21:12:00,
2013-05-29 17:22:00,86.0,60.0,-100.00,South,190,10.0,-999.0,40,-99.99,,,-99.99,,2013-05-29 21:22:00,
2013-05-29 17:33:00,86.0,59.0,-100.00,SSW,194,12.0,-999.0,40,-99.99,,,-99.99,,2013-05-29 21:33:00,
2013-05-29 17:43:00,86.0,59.0,-100.00,SSW,194,12.0,-999.0,40,-99.99,,,-99.99,,2013-05-29 21:43:00,
2013-05-29 17:53:00,87.0,59.0,-100.00,SSW,202,9.0,-999.0,39,-99.99,,,-99.99,,2013-05-29 21:53:00,
2013-05-29 18:03:00,87.0,59.0,-100.00,SSW,209,12.0,-999.0,38,-99.99,,,-99.99,,2013-05-29 22:03:00,
2013-05-29 18:12:00,87.0,59.0,-100.00,SSW,209,12.0,-999.0,38,-99.99,,,-99.99,,2013-05-29 22:12:00,
2013-05-29 18:23:00,87.0,59.0,-100.00,SW,216,10.0,-999.0,38,-99.99,,,-99.99,,2013-05-29 22:23:00,
2013-05-29 18:33:00,87.0,59.0,-100.00,SSW,211,12.0,-999.0,38,-99.99,,,-99.99,,2013-05-29 22:33:00,
2013-05-29 18:42:00,87.0,59.0,-100.00,SSW,211,12.0,-999.0,38,-99.99,,,-99.99,,2013-05-29 22:42:00,
2013-05-29 18:53:00,87.0,59.0,-100.00,SSW,210,10.0,-999.0,39,-99.99,,,-99.99,,2013-05-29 22:53:00,
2013-05-29 19:02:00,86.0,60.0,-100.00,SSW,200,11.0,-999.0,40,-99.99,,,-99.99,,2013-05-29 23:02:00,
2013-05-29 19:12:00,86.0,60.0,-100.00,SSW,200,11.0,-999.0,40,-99.99,,,-99.99,,2013-05-29 23:12:00,
2013-05-29 19:22:00,86.0,61.0,-100.00,SSW,200,10.0,-999.0,42,-99.99,,,-99.99,,2013-05-29 23:22:00,
2013-05-29 19:33:00,86.0,61.0,-100.00,SSW,203,11.0,-999.0,43,-99.99,,,-99.99,,2013-05-29 23:33:00,
2013-05-29 19:42:00,86.0,61.0,-100.00,SSW,203,11.0,-999.0,43,-99.99,,,-99.99,,2013-05-29 23:42:00,
2013-05-29 19:53:00,86.0,61.0,-100.00,SSW,201,10.0,-999.0,43,-99.99,,,-99.99,,2013-05-29 23:53:00,
2013-05-29 20:02:00,85.0,62.0,-100.00,SSW,199,9.0,-999.0,44,-99.99,,,-99.99,,2013-05-30 00:02:00,
2013-05-29 20:11:00,85.0,62.0,-100.00,SSW,199,9.0,-999.0,44,-99.99,,,-99.99,,2013-05-30 00:11:00,
2013-05-29 20:22:00,85.0,62.0,-100.00,SSW,201,9.0,-999.0,45,-99.99,,,-99.99,,2013-05-30 00:22:00,
2013-05-29 20:32:00,85.0,62.0,-100.00,SSW,201,7.0,-999.0,46,-99.99,,,-99.99,,2013-05-30 00:32:00,
2013-05-29 20:42:00,85.0,62.0,-100.00,SSW,201,7.0,-999.0,46,-99.99,,,-99.99,,2013-05-30 00:42:00,
2013-05-29 20:52:00,84.0,62.0,-100.00,SSW,201,8.0,-999.0,48,-99.99,,,-99.99,,2013-05-30 00:52:00,
2013-05-29 21:11:00,84.0,62.0,-100.00,SSW,202,9.0,-999.0,48,-99.99,,,-99.99,,2013-05-30 01:11:00,
2013-05-29 21:22:00,83.0,62.0,-100.00,SSW,212,8.0,-999.0,49,-99.99,,,-99.99,,2013-05-30 01:22:00,
2013-05-29 21:32:00,83.0,62.0,-100.00,SSW,211,9.0,-999.0,49,-99.99,,,-99.99,,2013-05-30 01:32:00,
2013-05-29 21:42:00,83.0,62.0,-100.00,SSW,211,9.0,-999.0,49,-99.99,,,-99.99,,2013-05-30 01:42:00,
2013-05-29 21:52:00,83.0,63.0,-100.00,SSW,207,8.0,-999.0,50,-99.99,,,-99.99,,2013-05-30 01:52:00,
2013-05-29 22:01:00,82.0,63.0,-100.00,SSW,206,10.0,-999.0,51,-99.99,,,-99.99,,2013-05-30 02:01:00,
2013-05-29 22:11:00,82.0,63.0,-100.00,SSW,206,10.0,-999.0,51,-99.99,,,-99.99,,2013-05-30 02:11:00,
2013-05-29 22:22:00,82.0,63.0,-100.00,SSW,206,8.0,-999.0,52,-99.99,,,-99.99,,2013-05-30 02:22:00,
2013-05-29 22:32:00,81.0,63.0,-100.00,SSW,207,7.0,-999.0,53,-99.99,,,-99.99,,2013-05-30 02:32:00,
2013-05-29 22:42:00,81.0,63.0,-100.00,SSW,207,7.0,-999.0,53,-99.99,,,-99.99,,2013-05-30 02:42:00,
2013-05-29 22:52:00,81.0,63.0,-100.00,SSW,207,7.0,-999.0,53,-99.99,,,-99.99,,2013-05-30 02:52:00,
2013-05-29 23:02:00,80.0,64.0,-100.00,SSW,208,8.0,-999.0,56,-99.99,,,-99.99,,2013-05-30 03:02:00,
2013-05-29 23:11:00,80.0,64.0,-100.00,SSW,208,8.0,-999.0,56,-99.99,,,-99.99,,2013-05-30 03:11:00,
2013-05-29 23:21:00,80.0,64.0,-100.00,SSW,203,9.0,-999.0,57,-99.99,,,-99.99,,2013-05-30 03:21:00,
2013-05-29 23:33:00,80.0,64.0,-100.00,SSW,199,9.0,-999.0,57,-99.99,,,-99.99,,2013-05-30 03:33:00,
2013-05-29 23:43:00,80.0,64.0,-100.00,SSW,199,9.0,-999.0,57,-99.99,,,-99.99,,2013-05-30 03:43:00,
2013-05-29 23:53:00,79.0,64.0,-100.00,SSW,201,9.0,-999.0,58,-99.99,,,-99.99,,2013-05-30 03:53:00,